Date,TemperatureHighF,TemperatureAvgF,TemperatureLowF,DewpointHighF,DewpointAvgF,DewpointLowF,HumidityHigh,HumidityAvg,HumidityLow,PressureMaxIn,PressureMinIn,WindSpeedMaxMPH,WindSpeedAvgMPH,GustSpeedMaxMPH,PrecipitationSumIn
2013-1-1,46,34,27,36,31,26,98,89,62,30.31,30.20,7,2,8,0.00
2013-1-2,52,35,25,37,28,24,96,81,42,30.31,30.21,5,2,9,0.01
2013-1-3,54,36,27,37,30,26,96,82,35,30.32,30.21,6,2,7,0.01
2013-1-4,53,38,28,40,32,27,96,82,47,30.34,30.24,6,2,7,0.01
2013-1-5,54,38,31,40,31,26,97,81,35,30.32,30.09,6,2,9,0.01
2013-1-6,42,36,30,38,34,30,98,93,74,30.14,30.07,4,1,11,0.44
2013-1-7,40,33,27,37,32,26,98,95,87,30.27,30.12,5,1,7,0.01
2013-1-8,55,38,30,45,35,29,99,90,61,30.28,30.21,5,2,6,0.01
2013-1-9,62,44,33,50,38,32,97,81,41,30.23,29.94,7,2,10,0.05
2013-1-10,38,31,24,32,28,23,96,89,70,30.15,29.94,6,1,11,0.08
2013-1-11,40,29,20,28,24,19,94,83,57,30.25,30.15,5,1,8,0.02
2013-1-12,37,29,20,29,24,18,93,82,60,30.27,30.16,8,2,10,0.00
2013-1-13,38,29,22,28,24,20,94,82,53,30.26,30.16,5,2,9,0.01
2013-1-14,38,29,21,30,25,19,94,86,68,30.44,30.23,9,2,10,0.01
2013-1-15,46,33,24,31,26,22,95,79,50,30.52,30.43,6,2,9,0.00
2013-1-16,56,38,28,35,29,25,91,74,33,30.50,30.32,6,2,7,0.00
2013-1-17,55,33,30,39,30,27,91,87,54,30.34,30.31,4,2,4,0.00
2013-1-21,40,37,35,32,30,28,81,77,72,30.22,30.18,4,3,5,0.00
2013-1-22,66,45,33,44,29,12,85,61,12,30.21,30.11,7,2,9,0.00
2013-1-23,63,49,35,46,34,25,93,61,25,30.14,30.07,7,2,14,0.02
2013-1-24,55,50,47,53,49,42,99,94,66,30.16,30.05,4,1,8,0.43
2013-1-25,58,50,47,54,50,47,100,98,87,30.16,29.98,4,1,6,0.02
2013-1-26,50,46,42,48,46,41,100,99,91,29.99,29.93,4,0,6,0.05
2013-1-27,47,37,29,40,33,29,98,87,64,30.08,29.94,7,2,12,0.01
2013-1-28,44,33,26,35,30,25,97,88,56,30.29,30.09,7,2,10,0.04
2013-1-29,46,34,28,39,32,28,98,91,70,30.35,30.28,6,1,9,0.01
2013-1-30,57,40,29,44,36,29,99,85,54,30.42,30.31,6,2,8,0.00
2013-1-31,60,44,33,45,37,32,99,81,47,30.33,30.23,5,2,9,0.01
2013-2-1,64,46,33,45,37,31,94,75,38,30.27,30.15,6,2,7,0.00
2013-2-2,62,47,37,49,40,33,92,78,41,30.30,30.22,5,2,6,0.00
2013-2-3,58,44,33,43,37,31,96,79,46,30.23,30.12,6,2,9,0.00
2013-2-4,60,44,33,47,39,32,98,83,59,30.18,30.08,5,2,8,0.00
2013-2-5,58,44,33,48,38,31,97,83,42,30.11,30.01,6,2,13,0.00
2013-2-6,50,40,30,45,38,30,99,94,81,30.18,30.07,5,2,8,0.01
2013-2-7,46,37,29,40,34,28,99,91,71,30.18,29.97,9,2,9,0.01
2013-2-8,39,33,28,36,32,27,98,95,84,29.97,29.90,4,0,7,0.25
2013-2-9,42,34,25,37,32,24,98,92,80,30.15,29.97,5,1,8,0.06
2013-2-10,41,36,29,36,33,28,97,90,75,30.14,30.06,6,1,8,0.00
2013-2-11,47,35,26,38,31,26,98,85,61,30.31,30.11,8,2,11,0.01
2013-2-12,51,38,28,37,32,27,98,82,51,30.40,30.31,6,2,10,0.01
2013-2-13,54,40,30,41,34,29,97,82,53,30.36,30.25,10,2,11,0.00
2013-2-14,61,43,31,45,35,30,97,76,33,30.29,30.21,5,2,9,0.00
2013-2-15,63,46,33,46,37,30,93,74,38,30.32,30.26,7,2,10,0.00
2013-2-16,62,46,35,44,33,28,92,67,29,30.31,30.07,6,3,8,0.00
2013-2-17,57,43,32,40,32,27,91,69,34,30.07,29.97,7,3,13,0.00
2013-2-18,56,43,32,42,36,31,96,79,47,30.04,29.90,8,2,13,0.00
2013-2-19,40,35,30,39,34,29,98,96,87,29.91,29.68,6,1,13,0.04
2013-2-20,37,30,21,36,30,20,98,96,88,30.10,29.75,4,0,8,0.58
2013-2-21,43,36,30,38,34,30,99,92,76,30.20,30.07,5,1,9,0.04
2013-2-22,47,38,29,40,35,28,98,89,73,30.28,30.20,9,1,10,0.01
2013-2-23,50,40,30,40,35,29,98,86,59,30.28,30.07,7,1,11,0.00
2013-2-24,49,37,27,38,31,26,96,82,52,30.30,30.11,9,2,11,0.00
2013-2-25,56,40,28,40,33,28,97,79,44,30.32,30.16,8,2,9,0.01
2013-2-26,53,40,29,42,35,28,97,83,60,30.24,30.13,7,2,11,0.01
2013-2-27,58,43,31,43,36,30,99,80,53,30.39,30.24,6,2,11,0.01
2013-2-28,59,45,33,44,38,32,97,77,51,30.46,30.37,9,2,12,0.00
2013-3-1,67,49,36,47,38,32,98,71,29,30.46,30.29,6,3,11,0.00
2013-3-2,69,54,40,45,36,30,84,57,24,30.31,30.08,11,3,16,0.00
2013-3-3,53,48,37,48,44,36,96,84,66,30.12,29.98,5,1,8,0.14
2013-3-4,58,45,34,46,40,33,99,83,58,30.12,30.01,8,2,11,0.00
2013-3-5,58,48,36,46,40,31,99,76,50,30.08,29.90,13,3,21,0.01
2013-3-6,48,42,36,43,38,31,97,89,53,30.04,29.93,10,2,17,0.65
2013-3-7,46,40,35,39,38,34,98,91,68,29.97,29.84,4,1,8,0.15
2013-3-8,48,41,34,42,38,33,97,88,72,30.02,29.75,7,2,12,0.02
2013-3-9,52,42,34,44,39,34,99,90,71,30.32,30.02,7,1,10,0.01
2013-3-10,57,45,32,46,39,32,98,81,46,30.36,30.27,7,2,9,0.00
2013-3-11,62,48,36,50,42,35,99,83,56,30.29,30.11,7,2,10,0.01
2013-3-12,69,52,38,53,44,37,99,76,48,30.16,30.08,6,2,9,0.01
2013-3-13,75,56,40,51,41,34,87,61,25,30.19,30.10,6,2,9,0.00
2013-3-14,75,57,43,52,43,37,85,64,30,30.14,30.06,6,3,9,0.00
2013-3-15,69,56,45,56,48,42,91,75,44,30.08,29.98,7,2,8,0.00
2013-3-16,67,54,43,56,46,39,99,77,42,30.04,29.97,6,2,11,0.00
2013-3-17,65,50,37,45,36,27,86,64,25,30.07,29.99,9,2,14,0.00
2013-3-18,63,50,37,46,40,33,89,70,44,30.10,30.02,8,2,12,0.00
2013-3-19,65,53,39,47,42,36,92,68,42,30.16,30.05,7,2,12,0.07
2013-3-20,60,51,43,50,45,38,98,82,46,30.15,30.04,5,1,9,0.10
2013-3-21,60,48,39,50,43,38,99,83,59,30.05,29.91,8,2,13,0.01
2013-3-22,56,45,35,48,38,29,99,79,41,30.04,29.93,8,2,14,0.00
2013-3-23,57,44,32,43,37,30,94,76,56,30.12,30.04,9,3,13,0.00
2013-3-24,64,48,35,47,40,34,97,76,50,30.10,29.96,9,2,11,0.00
2013-3-25,64,50,38,48,40,37,96,72,43,30.01,29.91,6,2,11,0.00
2013-3-26,63,50,40,47,41,37,91,73,45,29.95,29.90,8,2,11,0.00
2013-3-27,62,50,39,47,42,37,94,75,52,30.00,29.92,9,3,12,0.00
2013-3-28,62,52,44,51,46,41,94,81,62,30.08,29.99,11,2,12,0.00
2013-3-29,69,54,39,48,42,37,93,69,38,30.11,30.04,7,2,10,0.00
2013-3-30,70,56,44,50,45,40,92,69,43,30.07,29.93,8,2,14,0.00
2013-3-31,58,52,46,51,47,44,98,85,62,30.04,29.95,8,2,16,0.89
2013-4-1,54,47,40,49,45,40,98,92,70,30.12,30.03,8,1,8,0.31
2013-4-2,60,48,37,51,44,37,99,86,65,30.16,30.07,8,2,16,0.01
2013-4-3,69,54,42,57,48,41,99,83,61,30.14,29.99,6,2,10,0.00
2013-4-4,61,52,44,54,49,42,97,89,71,30.11,29.99,7,2,10,0.19
2013-4-5,61,51,40,53,45,39,99,81,58,30.11,30.05,10,2,12,0.01
2013-4-6,63,52,42,52,45,40,96,80,59,30.13,30.05,7,2,12,0.00
2013-4-7,64,53,43,50,44,39,96,75,52,30.08,29.78,8,2,15,0.00
2013-4-8,56,45,36,47,36,20,96,75,31,29.90,29.64,7,2,17,0.52
2013-4-9,61,45,30,43,33,24,91,68,35,30.07,29.89,8,2,11,0.00
2013-4-10,68,52,36,49,41,33,92,70,42,30.19,30.05,10,2,12,0.00
2013-4-11,68,56,43,52,47,41,96,75,51,30.05,29.77,7,2,14,0.00
2013-4-12,69,56,44,55,48,44,99,78,52,29.87,29.78,8,2,9,0.00
2013-4-13,69,56,44,50,46,43,97,72,41,29.85,29.73,7,2,11,0.00
2013-4-14,65,53,42,50,42,34,93,68,35,29.80,29.73,8,2,13,0.00
2013-4-15,55,44,36,43,37,34,96,77,53,29.82,29.75,12,2,15,0.03
2013-4-16,54,40,30,41,34,24,96,80,47,30.06,29.81,9,2,22,0.05
2013-4-17,59,43,28,36,28,18,85,59,28,30.22,30.07,7,2,17,0.01
2013-4-18,63,48,33,40,33,27,86,60,33,30.28,30.21,8,2,12,0.00
2013-4-19,71,54,38,48,40,35,91,63,35,30.26,30.04,9,2,13,0.00
2013-4-20,70,56,41,53,44,39,92,68,43,30.05,29.95,7,2,13,0.00
2013-4-21,74,59,45,54,48,43,96,69,41,30.01,29.92,11,2,13,0.00
2013-4-22,76,62,48,55,48,44,95,66,33,29.97,29.79,8,2,11,0.00
2013-4-23,74,60,48,53,47,42,92,65,34,29.87,29.80,10,2,14,0.00
2013-4-24,74,60,45,51,43,40,87,58,31,29.83,29.74,11,2,11,0.00
2013-4-25,68,56,44,52,46,40,89,72,49,30.05,29.82,6,2,10,0.00
2013-4-26,73,58,45,54,48,43,97,73,45,30.17,30.06,7,2,10,0.00
2013-4-27,78,62,48,56,50,44,96,67,37,30.17,30.01,6,2,10,0.00
2013-4-28,80,64,47,56,49,44,93,63,32,30.01,29.83,6,2,10,0.00
2013-4-29,80,64,49,57,50,45,90,63,35,29.86,29.70,9,2,12,0.00
2013-4-30,77,62,49,56,48,44,92,63,32,29.74,29.68,6,2,11,0.00
2013-5-1,76,61,47,50,44,38,90,59,26,30.07,29.75,8,2,10,0.00
2013-5-2,80,63,47,53,44,38,83,53,26,30.15,30.05,8,2,12,0.00
2013-5-3,80,64,49,51,44,39,84,53,24,30.05,29.75,6,2,12,0.00
2013-5-4,76,63,50,52,43,37,83,52,26,29.76,29.51,7,2,15,0.00
2013-5-5,65,56,47,46,42,36,80,63,38,29.78,29.55,12,2,14,0.00
2013-5-6,63,54,47,48,45,42,95,73,50,29.93,29.78,7,1,11,0.39
2013-5-7,55,50,46,52,48,45,98,95,88,30.01,29.91,3,0,4,0.35
2013-5-8,59,54,49,53,50,48,98,88,72,30.07,30.00,5,1,10,0.02
2013-5-9,67,56,44,58,51,43,99,86,67,30.09,30.03,4,1,7,0.00
2013-5-10,77,62,47,62,54,46,99,78,54,30.12,30.02,7,1,8,0.01
2013-5-11,83,67,52,63,56,51,99,73,36,30.09,30.00,5,2,9,0.00
2013-5-12,86,69,53,64,52,46,92,61,26,30.08,29.94,5,2,9,0.00
2013-5-13,85,69,53,61,51,42,88,57,23,30.00,29.85,6,2,11,0.00
2013-5-14,78,65,54,56,51,46,87,63,34,29.88,29.81,7,2,9,0.00
2013-5-15,78,62,50,56,47,40,94,63,29,29.94,29.88,8,2,12,0.00
2013-5-16,62,55,46,52,47,40,90,74,55,29.92,29.87,6,1,7,0.00
2013-5-17,67,57,44,52,44,37,98,67,38,29.97,29.89,6,2,11,0.00
2013-5-18,72,59,42,48,43,38,93,59,31,30.05,29.97,6,2,11,0.00
2013-5-19,76,60,43,49,44,39,90,60,32,30.02,29.91,7,2,10,0.00
2013-5-20,78,62,47,52,45,42,90,58,28,29.98,29.89,5,0,11,0.00
2013-5-21,77,62,48,56,42,31,85,52,19,29.91,29.77,8,1,12,0.00
2013-5-22,62,51,41,46,37,28,88,61,29,29.84,29.75,9,2,12,0.00
2013-5-23,64,53,35,38,32,24,80,48,23,29.95,29.84,8,2,11,0.00
2013-5-24,71,54,38,44,37,33,90,56,31,29.96,29.89,8,2,9,0.00
2013-5-25,70,56,40,46,37,32,86,54,27,29.96,29.92,7,2,11,0.00
2013-5-26,70,57,41,49,42,36,85,60,39,30.02,29.96,7,2,11,0.00
2013-5-27,69,57,43,51,45,41,96,66,41,30.02,29.92,6,1,11,0.00
2013-5-28,72,61,53,58,51,47,94,72,46,29.93,29.79,8,1,10,0.01
2013-5-29,73,62,50,55,51,46,89,68,49,29.86,29.76,7,1,11,0.00
2013-5-30,77,62,47,57,48,42,98,64,36,29.89,29.82,6,2,12,0.00
2013-5-31,80,64,47,55,46,38,86,54,29,29.93,29.87,7,2,11,0.00
2013-6-1,88,70,53,58,49,44,85,52,24,29.90,29.73,6,2,8,0.00
2013-6-2,87,71,54,62,49,45,82,50,24,29.74,29.58,7,2,10,0.00
2013-6-3,84,70,54,60,52,45,82,54,35,29.72,29.61,7,1,9,0.00
2013-6-4,82,70,57,60,56,53,91,64,41,29.82,29.71,5,1,9,0.00
2013-6-5,84,70,56,62,57,53,93,66,40,29.86,29.78,4,1,9,0.00
2013-6-6,87,72,57,64,58,54,93,65,38,29.83,29.73,6,1,11,0.00
2013-6-7,93,75,58,68,60,55,94,65,35,29.79,29.66,6,1,8,0.00
2013-6-8,97,79,60,69,60,53,87,57,29,29.68,29.59,5,1,8,0.00
2013-6-9,84,71,63,67,60,58,88,70,44,29.68,29.65,7,2,9,0.00
2013-6-10,72,65,54,55,51,47,78,61,43,29.88,29.80,3,0,7,0.00
2013-6-11,84,66,50,57,49,39,81,56,30,29.94,29.82,6,2,11,0.00
2013-6-12,82,68,53,58,47,38,85,51,25,29.87,29.82,6,2,11,0.00
2013-6-13,78,63,46,49,38,25,75,45,15,29.99,29.87,5,2,13,0.00
2013-6-14,80,64,48,50,42,37,82,47,26,29.91,29.77,7,1,10,0.00
2013-6-15,82,66,49,55,40,31,78,44,18,29.87,29.79,8,1,10,0.00
2013-6-16,83,67,49,53,43,37,76,44,26,29.96,29.88,9,1,11,0.00
2013-6-17,81,66,50,55,45,41,81,51,26,29.96,29.88,6,1,9,0.00
2013-6-18,74,61,48,52,44,39,85,55,33,29.91,29.83,7,2,12,0.00
2013-6-19,72,58,42,47,41,34,84,55,33,29.94,29.86,6,1,14,0.00
2013-6-20,78,62,43,50,40,34,83,48,27,29.91,29.85,5,1,12,0.00
2013-6-21,80,64,47,52,42,38,81,48,27,29.88,29.82,6,1,11,0.00
2013-6-22,82,66,49,53,43,38,79,47,25,29.86,29.75,5,1,9,0.00
2013-6-23,76,64,51,53,47,41,79,56,35,29.78,29.71,5,1,8,0.00
2013-6-24,66,60,53,61,55,47,92,83,77,29.88,29.72,3,0,6,0.12
2013-6-25,80,68,59,61,58,56,91,73,49,29.95,29.86,6,1,11,0.00
2013-6-26,86,71,56,64,58,54,97,68,43,29.96,29.89,8,1,12,0.00
2013-6-27,92,74,59,66,59,55,91,63,34,29.99,29.91,6,1,9,0.00
2013-6-28,94,78,62,65,59,54,85,56,33,29.94,29.81,6,1,10,0.00
2013-6-29,98,81,63,67,59,55,83,52,26,29.84,29.70,5,1,12,0.00
2013-6-30,99,82,65,70,60,56,83,52,26,29.75,29.65,5,1,8,0.00
2013-7-1,100,82,66,71,60,55,78,50,28,29.75,29.69,4,1,11,0.00
2013-7-2,94,80,67,70,61,55,77,53,31,29.82,29.72,5,1,11,0.00
2013-7-3,96,81,66,69,61,58,81,54,31,29.80,29.65,5,1,9,0.00
2013-7-4,98,81,66,68,63,57,84,56,31,29.68,29.57,6,1,12,0.00
2013-7-5,92,80,63,67,56,46,87,49,23,29.63,29.57,7,2,13,0.00
2013-7-6,89,71,57,58,50,45,79,51,25,29.69,29.62,8,2,11,0.00
2013-7-7,91,74,57,60,48,43,72,44,22,29.75,29.69,8,2,12,0.00
2013-7-8,92,71,57,60,44,34,72,42,13,29.90,29.75,6,2,11,0.00
2013-7-9,94,76,58,62,42,36,64,33,13,29.97,29.87,9,1,10,0.00
2013-7-10,93,76,59,60,46,38,63,37,15,29.89,29.79,5,1,12,0.00
2013-7-11,89,75,60,61,47,36,71,40,20,29.82,29.74,6,1,12,0.00
2013-7-12,88,70,55,54,42,35,67,39,22,29.84,29.77,5,1,10,0.00
2013-7-13,89,72,54,57,43,38,68,39,20,29.88,29.82,6,1,12,0.00
2013-7-14,90,74,57,58,44,38,67,38,18,29.90,29.78,0,0,0,0.00
2013-7-15,89,72,58,55,45,41,66,40,21,29.80,29.68,3,0,3,0.00
2013-7-16,85,70,54,52,44,39,74,42,23,29.90,29.72,7,1,11,0.00
2013-7-17,87,70,52,55,45,39,71,44,26,29.98,29.90,6,1,11,0.00
2013-7-18,91,73,56,56,47,44,73,43,25,29.96,29.83,7,1,9,0.00
2013-7-19,94,76,59,59,50,45,71,44,22,29.85,29.72,5,1,9,0.00
2013-7-20,94,77,62,62,53,50,74,46,23,29.76,29.64,7,1,10,0.00
2013-7-21,95,79,63,63,51,46,71,41,20,29.77,29.65,6,1,12,0.00
2013-7-22,89,75,64,65,54,45,87,50,30,29.85,29.74,13,1,13,0.01
2013-7-23,86,72,64,65,58,52,84,64,36,29.91,29.82,6,0,9,0.00
2013-7-24,92,76,60,64,55,52,82,53,28,29.90,29.78,6,1,10,0.00
2013-7-25,91,77,64,64,58,53,78,53,32,29.89,29.81,8,1,9,0.00
2013-7-26,93,77,64,66,56,49,82,52,23,29.96,29.87,7,1,11,0.00
2013-7-27,91,76,62,64,52,45,73,45,22,29.89,29.75,7,1,10,0.00
2013-7-28,90,74,58,65,51,45,92,50,21,29.76,29.69,6,1,10,0.01
2013-7-29,88,72,57,59,49,42,76,47,25,29.89,29.73,5,1,11,0.00
2013-7-30,89,73,58,55,48,42,71,44,25,29.97,29.89,8,1,11,0.00
2013-7-31,88,72,58,60,49,42,78,47,25,29.95,29.86,4,1,10,0.00
2013-8-1,85,68,55,53,42,36,72,43,19,29.93,29.84,5,1,12,0.00
2013-8-2,84,67,50,49,40,35,68,40,23,29.89,29.82,6,1,11,0.00
2013-8-3,85,69,52,51,41,38,66,40,21,29.90,29.83,5,2,10,0.00
2013-8-4,87,71,54,52,42,37,67,39,22,29.91,29.84,5,1,11,0.00
2013-8-5,88,71,54,53,44,38,67,40,23,29.91,29.83,6,1,10,0.00
2013-8-6,86,70,55,52,43,35,67,40,22,29.91,29.84,7,1,12,0.00
2013-8-7,79,66,53,55,46,41,74,51,31,29.97,29.90,7,1,10,0.00
2013-8-8,78,64,50,50,46,41,82,54,33,29.93,29.85,8,1,14,0.00
2013-8-9,80,65,49,51,44,39,79,51,30,29.91,29.84,5,1,11,0.00
2013-8-10,81,66,50,50,43,35,71,46,28,29.95,29.89,7,1,13,0.00
2013-8-11,84,67,51,54,46,42,79,49,27,29.94,29.84,9,1,10,0.00
2013-8-12,87,69,53,55,46,43,79,46,24,29.91,29.85,6,1,10,0.00
2013-8-13,90,71,55,55,45,41,73,43,20,29.93,29.83,7,1,9,0.00
2013-8-14,91,71,54,54,40,36,65,36,16,29.90,29.81,5,1,11,0.00
2013-8-15,91,71,54,53,37,29,64,32,13,29.90,29.84,5,1,11,0.00
2013-8-16,93,74,57,50,40,29,51,31,17,29.91,29.83,6,1,10,0.00
2013-8-17,94,76,62,53,45,40,58,36,20,29.87,29.75,7,1,12,0.00
2013-8-18,93,76,62,57,49,43,70,41,23,29.81,29.72,5,1,8,0.00
2013-8-19,96,80,62,64,52,45,70,40,24,29.83,29.71,7,1,12,0.00
2013-8-20,92,78,62,61,54,48,72,46,29,29.77,29.68,8,1,11,0.00
2013-8-21,90,74,62,61,50,37,78,48,19,29.81,29.72,5,1,13,0.00
2013-8-22,88,72,56,51,43,36,64,37,21,29.84,29.75,10,2,13,0.00
2013-8-23,86,69,55,52,44,36,68,43,25,29.81,29.71,7,1,10,0.00
2013-8-24,86,68,53,52,46,42,77,48,24,29.81,29.74,8,2,11,0.00
2013-8-25,84,68,54,52,47,39,76,50,30,29.87,29.81,7,1,14,0.00
2013-8-26,85,69,54,55,48,43,76,51,29,29.92,29.81,7,1,10,0.00
2013-8-27,85,70,56,57,51,47,76,53,31,29.84,29.73,5,1,12,0.00
2013-8-28,87,73,62,59,53,48,79,53,32,29.84,29.75,6,1,11,0.00
2013-8-29,90,73,58,60,51,46,81,50,29,29.94,29.84,6,1,10,0.00
2013-8-30,92,74,58,59,50,45,70,46,22,29.96,29.84,6,1,9,0.00
2013-8-31,88,72,60,59,51,44,72,48,29,29.90,29.80,5,1,9,0.00
2013-9-1,87,73,60,59,54,50,75,54,33,29.85,29.77,5,1,9,0.00
2013-9-2,85,72,60,62,57,54,85,63,43,29.85,29.77,8,1,11,0.00
2013-9-3,85,71,61,63,57,54,86,62,39,29.87,29.81,6,1,11,0.00
2013-9-4,86,71,60,61,56,53,85,61,38,29.91,29.83,7,1,10,0.00
2013-9-5,86,70,58,60,55,51,86,60,35,29.90,29.83,6,1,10,0.00
2013-9-6,87,70,57,58,53,48,87,58,32,29.91,29.79,6,1,9,0.00
2013-9-7,89,71,56,57,49,44,80,50,25,29.86,29.78,6,1,13,0.00
2013-9-8,91,73,57,55,46,40,63,42,20,29.82,29.70,13,1,13,0.00
2013-9-9,92,73,58,57,47,43,70,43,19,29.74,29.62,5,1,11,0.00
2013-9-10,87,72,57,57,47,43,72,44,24,29.79,29.67,8,1,9,0.00
2013-9-11,82,68,57,55,48,44,73,51,31,29.88,29.78,6,1,9,0.00
2013-9-12,83,68,54,56,50,46,78,55,32,29.90,29.80,6,1,9,0.00
2013-9-13,86,70,55,59,52,48,82,58,33,29.83,29.68,7,1,9,0.00
2013-9-14,88,71,57,60,54,50,82,58,34,29.72,29.62,4,1,9,0.00
2013-9-15,87,71,58,60,52,43,83,54,25,29.76,29.67,4,1,13,0.00
2013-9-16,85,68,54,56,48,43,79,52,29,29.80,29.70,5,1,11,0.00
2013-9-17,77,63,52,54,46,40,86,57,35,29.77,29.72,8,1,11,0.00
2013-9-18,75,60,47,50,44,39,86,57,36,29.83,29.75,7,1,11,0.00
2013-9-19,86,64,48,52,41,31,85,48,17,29.85,29.74,5,1,8,0.00
2013-9-20,81,64,51,49,40,31,64,43,24,29.79,29.71,7,1,10,0.00
2013-9-21,66,53,43,57,46,36,94,76,56,29.85,29.70,8,1,10,0.51
2013-9-22,66,52,39,52,45,38,98,79,46,29.96,29.83,6,1,9,0.01
2013-9-23,75,58,44,55,49,43,99,76,44,30.01,29.92,4,1,7,0.01
2013-9-24,76,60,46,55,48,44,97,68,37,29.97,29.81,4,1,9,0.00
2013-9-25,64,53,41,47,42,37,97,70,43,29.81,29.72,7,1,10,0.00
2013-9-26,65,50,38,44,37,32,96,64,31,29.97,29.72,7,1,10,0.00
2013-9-27,68,52,37,44,36,33,90,61,33,30.10,29.97,7,1,9,0.00
2013-9-28,76,57,42,47,38,33,86,55,21,30.11,30.02,5,1,11,0.00
2013-9-29,79,59,44,46,38,35,73,51,22,30.11,30.03,3,1,9,0.00
2013-9-30,76,58,44,49,43,37,82,60,31,30.05,29.91,6,1,10,0.00
2013-10-1,74,58,46,52,47,43,91,69,43,29.94,29.86,5,1,8,0.00
2013-10-2,73,58,46,54,45,37,97,66,34,29.94,29.87,5,0,10,0.00
2013-10-3,68,53,41,43,36,30,83,57,28,29.94,29.87,6,1,10,0.00
2013-10-4,72,53,38,39,34,30,80,53,26,30.16,29.95,7,1,9,0.00
2013-10-5,76,56,41,42,30,26,65,42,17,30.23,30.15,8,1,9,0.00
2013-10-6,78,58,42,44,33,28,68,43,16,30.17,30.02,5,1,8,0.00
2013-10-7,77,58,46,49,32,25,70,43,15,30.03,29.87,3,1,8,0.00
2013-10-8,73,56,42,41,32,28,66,44,22,29.88,29.66,6,1,10,0.00
2013-10-9,50,46,40,45,40,33,93,78,58,29.76,29.54,4,0,5,0.12
2013-10-10,62,48,39,46,42,38,98,81,52,30.02,29.76,4,0,7,0.01
2013-10-11,68,52,39,50,41,38,98,72,39,30.07,29.97,4,1,8,0.00
2013-10-12,69,52,40,48,40,37,96,68,35,30.00,29.89,6,1,9,0.00
2013-10-13,66,51,40,47,40,36,93,69,40,30.05,29.87,6,1,9,0.00
2013-10-14,70,52,38,48,40,37,95,67,33,30.13,30.02,5,1,8,0.00
2013-10-15,70,53,41,48,39,37,88,63,34,30.05,29.98,8,1,11,0.00
2013-10-16,73,55,41,45,36,32,80,54,23,30.14,30.05,6,1,10,0.00
2013-10-17,73,55,42,45,36,33,75,52,27,30.08,29.96,5,1,9,0.00
2013-10-18,78,56,41,45,34,26,78,49,18,30.07,30.00,4,1,8,0.00
2013-10-19,78,57,42,41,31,25,58,40,20,30.10,30.02,6,1,10,0.00
2013-10-20,76,56,42,40,31,25,61,42,21,30.05,29.92,4,1,9,0.00
2013-10-21,79,58,43,44,34,24,67,45,21,30.01,29.92,3,1,8,0.00
2013-10-22,80,59,45,40,29,25,52,34,15,30.02,29.92,6,1,10,0.00
2013-10-23,78,58,45,40,32,25,58,40,18,29.95,29.86,6,1,8,0.00
2013-10-24,74,58,44,43,37,32,68,49,27,30.07,29.93,9,2,9,0.00
2013-10-25,75,56,42,48,40,35,78,59,30,30.14,30.07,4,1,9,0.00
2013-10-26,78,57,43,47,38,29,81,54,23,30.14,30.03,6,1,7,0.00
2013-10-27,71,55,43,43,37,31,92,55,30,30.05,29.60,5,1,8,0.00
2013-10-28,44,41,36,42,40,35,97,94,89,29.91,29.62,4,1,9,0.51
2013-10-29,54,44,35,45,39,34,99,86,61,30.03,29.91,3,0,5,0.00
2013-10-30,59,44,33,46,38,32,99,82,53,30.15,30.03,4,1,6,0.00
2013-10-31,66,48,36,50,39,35,99,77,42,30.20,30.12,4,0,7,0.01
2013-11-1,74,51,36,49,35,30,86,61,21,30.20,30.07,4,1,7,0.00
2013-11-2,72,52,39,43,36,33,83,60,27,30.08,29.89,6,1,8,0.00
2013-11-3,62,48,38,41,36,34,89,68,41,29.94,29.86,4,1,8,0.00
2013-11-4,56,44,32,43,35,29,96,74,47,30.07,29.83,6,1,8,0.00
2013-11-5,60,43,30,40,33,29,96,71,39,30.31,30.07,7,1,10,0.00
2013-11-6,69,49,36,41,31,25,86,57,19,30.32,30.25,3,1,6,0.00
2013-11-7,71,52,42,41,32,26,68,50,19,30.25,30.09,4,1,6,0.00
2013-11-8,70,51,40,40,32,30,72,53,24,30.11,29.98,4,1,7,0.00
2013-11-9,70,51,39,42,34,31,80,58,27,30.08,30.01,5,1,7,0.00
2013-11-10,74,52,39,39,28,22,71,45,15,30.14,30.08,6,2,7,0.00
2013-11-11,75,54,39,36,28,24,64,42,15,30.21,30.10,4,1,6,0.00
2013-11-12,74,56,46,42,34,28,62,46,20,30.26,30.16,5,0,7,0.00
2013-11-13,69,52,41,44,38,33,84,61,37,30.22,30.09,4,1,8,0.00
2013-11-14,70,51,40,47,40,36,89,68,34,30.13,29.81,3,1,7,0.00
2013-11-15,59,46,36,45,38,35,95,77,53,29.82,29.69,4,1,8,0.00
2013-11-16,58,44,36,45,37,33,97,79,54,29.95,29.78,5,1,8,0.00
2013-11-17,58,44,34,45,36,33,97,77,48,30.13,29.94,5,1,8,0.00
2013-11-18,60,46,35,43,37,33,96,73,46,30.17,30.08,3,1,8,0.00
2013-11-19,58,48,37,44,40,34,92,77,55,30.10,29.97,3,0,8,0.07
2013-11-20,56,49,44,50,46,43,97,91,78,29.99,29.82,4,0,6,0.38
2013-11-21,54,46,36,48,43,35,98,92,75,29.95,29.82,3,0,8,0.56
2013-11-22,53,42,35,46,40,34,99,92,70,30.02,29.93,3,0,6,0.01
2013-11-23,54,42,32,43,37,32,98,82,58,30.14,30.00,6,1,9,0.00
2013-11-24,56,42,32,43,36,32,98,82,55,30.29,30.14,6,1,8,0.01
2013-11-25,58,43,33,47,38,32,98,83,54,30.35,30.29,4,1,8,0.01
2013-11-26,64,46,35,51,38,33,99,78,45,30.30,30.12,3,1,6,0.00
2013-11-27,65,47,37,46,35,31,89,67,29,30.12,29.89,5,1,9,0.00
2013-11-28,60,46,38,44,38,35,89,74,44,30.12,29.89,4,1,9,0.00
2013-11-29,63,46,35,42,36,33,92,73,39,30.27,30.12,4,1,9,0.00
2013-11-30,61,45,35,41,37,33,94,76,46,30.30,30.21,4,1,8,0.00
2013-12-1,62,45,34,45,37,33,97,77,43,30.37,30.25,4,1,9,0.00
2013-12-2,67,47,36,47,37,32,94,73,36,30.29,29.95,5,1,8,0.00
2013-12-3,44,39,28,43,36,27,96,92,80,29.95,29.75,5,0,9,0.44
2013-12-4,39,30,24,34,28,23,97,90,74,30.09,29.85,4,1,11,0.02
2013-12-5,41,30,22,31,25,20,96,84,60,30.20,30.08,5,1,8,0.01
2013-12-6,39,30,21,30,24,19,95,79,60,30.23,30.07,5,1,15,0.00
2013-12-7,35,28,14,32,25,12,97,91,76,30.24,29.97,5,0,17,0.13
2013-12-8,38,23,12,29,19,10,95,83,61,30.38,30.25,6,0,6,0.31
2013-12-9,44,26,14,30,19,12,95,79,36,30.52,30.38,5,0,6,0.11
2013-12-10,50,32,20,35,25,19,96,81,39,30.51,30.29,2,0,4,0.01
2013-12-11,59,37,26,35,26,16,93,72,20,30.32,30.26,3,1,6,0.01
2013-12-12,60,38,27,33,26,20,89,70,23,30.32,30.23,4,1,6,0.00
2013-12-13,53,37,28,33,28,23,92,73,32,30.39,30.25,5,1,7,0.00
2013-12-14,60,40,29,36,28,21,93,69,23,30.47,30.38,3,1,8,0.00
2013-12-15,66,43,31,39,31,26,87,67,24,30.43,30.30,3,1,6,0.00
2013-12-16,77,49,36,45,34,26,80,64,15,30.33,30.18,3,2,5,0.00
2013-12-17,73,52,40,46,36,28,79,60,19,30.25,30.06,4,1,5,0.00
2013-12-18,67,53,44,47,39,33,79,61,29,30.07,29.68,5,1,7,0.00
2013-12-19,46,40,32,41,37,30,96,87,78,29.88,29.61,4,0,5,0.00
2013-12-20,47,38,30,39,35,28,98,90,71,30.02,29.88,5,0,8,0.00
2013-12-21,50,38,31,40,34,29,97,85,59,30.15,29.99,4,1,7,0.00
2013-12-22,59,41,30,45,34,29,98,80,45,30.38,30.15,5,1,8,0.01
2013-12-23,64,44,33,43,34,31,92,73,31,30.45,30.36,4,2,7,0.00
2013-12-24,63,44,34,43,35,31,91,75,38,30.37,30.25,6,2,8,0.00
2013-12-25,68,45,33,41,31,27,86,65,26,30.37,30.28,5,2,7,0.00
2013-12-26,69,46,34,42,30,26,78,59,23,30.33,30.24,4,2,8,0.00
2013-12-27,68,47,34,39,29,23,74,55,18,30.31,30.15,3,1,5,0.00
2013-12-28,63,43,31,35,28,23,82,59,25,30.15,30.03,5,2,8,0.00
2013-12-29,63,42,29,39,27,22,84,61,22,30.27,30.13,5,2,7,0.00
2013-12-30,66,45,33,35,26,17,70,53,15,30.32,30.24,7,2,8,0.00
2013-12-31,65,44,34,39,28,22,77,57,22,30.29,30.17,5,2,9,0.00
2014-1-1,67,44,32,37,30,27,82,62,26,30.26,30.18,5,2,7,0.00
2014-1-2,68,46,36,38,29,25,75,56,23,30.23,30.10,6,2,9,0.00